Location: Newark
(35.2672°N, 80.7344°W)
Time: 23:53:22
(UTC+00:00)

Transit 2A Rocket - Pass Details

Date: 26 January 2020
Orbit: 592 x 911 km, 66.7° (Epoch: 19 February)

Event Time Altitude Azimuth Distance (km) Brightness Sun altitude
Rises 10:02:33 0° 209° (SSW) 2,865 - -29.4°
Reaches altitude 10° 10:04:49 10° 211° (SSW) 1,940 - -28.9°
Maximum altitude 10:09:09 77° 297° (WNW) 612 - -28.0°
Exits shadow 10:12:07 19° 22° (NNE) 1,413 6.5 -27.4°
Drops below altitude 10° 10:13:26 10° 24° (NNE) 1,929 7.3 -27.2°
Sets 10:15:42 0° 26° (NNE) 2,848 8.2 -26.7°
